This demonstration page uses our WeatherBlox Daily Observations layout. Learn more.

Hourly Observations for August 8, 2018

Temp ( °F °C ) Dew Point ( °F °C ) Humidity (%) Winds ( mph kmh ) Pressure ( in mb ) Visibility ( mi km ) Precip ( " mm )
12:15 am 00:15 Clear 67 19.4 66 18.7 96 96 ESE 3 6 30 1016 10 16.09344 0 0
12:35 am 00:35 Clear 67 19.2 66 18.9 98 98 SE 6 9 29.97 1015 10 16.09344 0 0
12:55 am 00:55 Clear 67 19.6 66 19.1 97 97 S 5 7 29.97 1015 10 16.09344 0 0
1:15 am 01:15 Clear 66 19 65 18.5 97 97 SE 3 6 29.97 1015 10 16.09344 0 0
1:35 am 01:35 Clear 65 18.6 65 18.3 98 98 SE 3 6 29.97 1015 10 16.09344 0 0
1:55 am 01:55 Clear 65 18.1 64 18 99 99 Calm 29.97 1015 10 16.09344 0 0
2:15 am 02:15 Clear 65 18.1 65 18.1 100 100 Calm 29.97 1015 10 16.09344 0 0
2:35 am 02:35 Clear 64 18 64 18 100 100 Calm 29.97 1015 10 16.09344 0 0
2:55 am 02:55 Partly Cloudy 65 18.1 65 18.1 100 100 Calm 29.97 1015 10 16.09344 0 0
3:15 am 03:15 Partly Cloudy 65 18.2 65 18.2 100 100 Calm 29.97 1015 10 16.09344 0 0
3:35 am 03:35 Clear 66 18.7 65 18.6 99 99 Calm 29.97 1015 10 16.09344 0 0
3:55 am 03:55 Partly Cloudy 66 18.8 65 18.2 96 96 Calm 29.97 1015 10 16.09344 0 0
4:15 am 04:15 Partly Cloudy 64 17.7 63 17.1 96 96 Calm 29.97 1015 10 16.09344 0 0
4:35 am 04:35 Clear 64 17.7 63 17.4 98 98 Calm 29.94 1014 10 16.09344 0 0
4:55 am 04:55 Clear with Nearby Thunderstorms 63 17.3 62 16.8 97 97 Calm 29.94 1014 10 16.09344 0 0
5:15 am 05:15 Clear with Nearby Thunderstorms 64 17.8 63 17.4 98 98 SSE 3 6 29.94 1014 10 16.09344 0 0
5:35 am 05:35 Partly Cloudy with Thunderstorms 65 18.2 64 17.8 98 98 W 8 13 29.97 1015 10 16.09344 0 0
5:55 am 05:55 Cloudy with Thunderstorms 67 19.5 66 19 97 97 W 8 13 29.97 1015 10 16.09344 0.02 0.508
6:15 am 06:15 Cloudy with Light Thunderstorms 67 19.5 66 19.1 98 98 N 10 17 30 1016 10 16.09344 0.06 1.524
6:35 am 06:35 Cloudy with Heavy Thunderstorms 61 16.1 61 15.9 99 99 ESE 22 35 30.03 1017 0.5 0.804672 0.99 25.146
6:55 am 06:55 Cloudy with Light Thunderstorms 63 17.2 63 17.2 100 100 ESE 9 15 30 1016 10 16.09344 1.36 34.544
7:15 am 07:15 Cloudy with Thunderstorms 62 16.9 62 16.9 100 100 ESE 12 19 30 1016 10 16.09344 0 0
7:35 am 07:35 Mostly Cloudy with Nearby Thunderstorms 62 16.4 62 16.4 100 100 SSE 10 17 29.97 1015 10 16.09344 0 0
7:55 am 07:55 Mostly Cloudy with Nearby Thunderstorms 61 16.3 61 16.3 100 100 S 8 13 29.97 1015 10 16.09344 0 0
8:15 am 08:15 Partly Cloudy 65 18.1 61 16 88 88 S 12 19 29.97 1015 10 16.09344 0 0
8:35 am 08:35 Mostly Cloudy 65 18.5 62 16.4 88 88 S 9 15 30 1016 10 16.09344 0 0
8:55 am 08:55 Mostly Cloudy 65 18.5 61 16.3 87 87 S 10 17 30 1016 10 16.09344 0 0
9:15 am 09:15 Partly Cloudy with Nearby Thunderstorms 68 19.9 63 17.1 84 84 S 8 13 30 1016 10 16.09344 0 0
9:35 am 09:35 Sunny 70 20.9 63 17.2 79 79 S 9 15 29.97 1015 10 16.09344 0 0
9:55 am 09:55 Sunny 72 22.1 64 17.7 76 76 SSW 10 17 29.97 1015 10 16.09344 0 0
10:15 am 10:15 Sunny with Nearby Thunderstorms 73 23 64 17.6 72 72 SSW 8 13 29.97 1015 10 16.09344 0 0
10:35 am 10:35 Partly Cloudy 75 24.1 64 17.7 68 68 SSW 10 17 29.94 1014 10 16.09344 0 0
10:55 am 10:55 Partly Cloudy 76 24.2 65 18.5 71 71 S 14 22 29.94 1014 10 16.09344 0 0
11:15 am 11:15 Sunny 74 23.5 65 18.5 74 74 S 12 19 29.97 1015 10 16.09344 0 0
11:35 am 11:35 Sunny 76 24.4 65 18.5 70 70 SSW 9 15 29.94 1014 10 16.09344 0 0
11:55 am 11:55 Sunny 77 25.2 65 18.6 67 67 SW 12 19 29.94 1014 10 16.09344 0 0
12:15 pm 12:15 Sunny 78 25.7 66 18.8 66 66 SW 10 17 29.94 1014 10 16.09344 0 0
12:35 pm 12:35 Sunny 78 25.8 66 18.7 65 65 SW 14 22 29.94 1014 10 16.09344 0 0
12:55 pm 12:55 Sunny 78 25.8 64 18 62 62 SW 15 24 29.94 1014 10 16.09344 0 0
1:15 pm 13:15 Sunny 79 25.9 64 17.9 61 61 SW 12 19 29.94 1014 10 16.09344 0 0
1:35 pm 13:35 Sunny 79 26 65 18.1 62 62 SW 10 17 29.94 1014 10 16.09344 0 0
1:55 pm 13:55 Sunny 79 26.1 65 18.5 63 63 SW 8 13 29.94 1014 10 16.09344 0 0
2:15 pm 14:15 Sunny 80 26.5 67 19.3 65 65 SW 9 15 29.94 1014 10 16.09344 0 0
2:35 pm 14:35 Sunny 80 26.6 67 19.2 64 64 SW 10 17 29.94 1014 10 16.09344 0 0
2:55 pm 14:55 Sunny 80 26.7 66 19 63 63 WSW 9 15 29.94 1014 10 16.09344 0 0
3:15 pm 15:15 Sunny 81 27.3 67 19.2 61 61 W 5 7 29.94 1014 10 16.09344 0 0
3:35 pm 15:35 Sunny 82 27.6 67 19.3 61 61 WSW 7 11 29.88 1012 10 16.09344 0 0
3:55 pm 15:55 Partly Cloudy 82 28 67 19.7 61 61 WSW 7 11 29.88 1012 10 16.09344 0 0
4:15 pm 16:15 Partly Cloudy 82 27.8 67 19.2 60 60 NW 3 6 29.88 1012 10 16.09344 0 0
4:35 pm 16:35 Sunny 83 28.1 68 20.1 62 62 W 3 6 29.88 1012 10 16.09344 0 0
4:55 pm 16:55 Sunny 83 28.1 69 20.3 63 63 Calm 29.88 1012 10 16.09344 0 0
5:15 pm 17:15 Sunny 82 27.9 69 20.4 64 64 NE 3 6 29.88 1012 10 16.09344 0 0
5:35 pm 17:35 Sunny 82 28 68 20.1 62 62 Calm 29.88 1012 10 16.09344 0 0
5:55 pm 17:55 Partly Cloudy 82 28 68 20.2 63 63 Calm 29.88 1012 10 16.09344 0 0
6:15 pm 18:15 Sunny 82 27.8 68 20.1 63 63 Calm 29.88 1012 10 16.09344 0 0
6:35 pm 18:35 Sunny 82 27.6 69 20.7 66 66 ENE 5 7 29.88 1012 10 16.09344 0 0
6:55 pm 18:55 Sunny 82 27.5 69 20.6 66 66 NE 5 7 29.88 1012 10 16.09344 0 0
7:15 pm 19:15 Sunny 81 27 69 20.8 69 69 ENE 3 6 29.91 1013 10 16.09344 0 0
7:35 pm 19:35 Sunny 80 26.7 70 20.9 71 71 Calm 29.91 1013 10 16.09344 0 0
7:55 pm 19:55 Sunny 79 26.3 71 21.5 75 75 Calm 29.91 1013 10 16.09344 0 0
8:15 pm 20:15 Sunny 78 25.5 72 22 81 81 E 3 6 29.91 1013 10 16.09344 0 0
8:35 pm 20:35 Sunny 76 24.5 71 21.7 84 84 ESE 5 7 29.91 1013 10 16.09344 0 0
8:55 pm 20:55 Clear 74 23.5 70 21 86 86 SE 5 7 29.91 1013 10 16.09344 0 0
9:15 pm 21:15 Clear 73 22.5 69 20.7 90 90 SE 3 6 29.94 1014 10 16.09344 0 0
9:35 pm 21:35 Clear 71 21.6 69 20.3 92 92 Calm 29.97 1015 10 16.09344 0 0
9:55 pm 21:55 Clear 72 22 69 20.5 91 91 Calm 29.97 1015 10 16.09344 0 0
10:15 pm 22:15 Clear 71 21.5 68 19.9 91 91 Calm 29.97 1015 10 16.09344 0 0
10:35 pm 22:35 Clear 70 21 68 20 94 94 Calm 29.97 1015 10 16.09344 0 0
10:55 pm 22:55 Clear 69 20.8 67 19.7 93 93 Calm 29.97 1015 10 16.09344 0 0
11:15 pm 23:15 Clear 69 20.5 67 19.7 95 95 Calm 29.97 1015 10 16.09344 0 0
11:35 pm 23:35 Clear 68 20.2 67 19.3 95 95 Calm 29.97 1015 10 16.09344 0 0
11:55 pm 23:55 Clear 67 19.3 67 19.2 99 99 Calm 30 1016 10 16.09344 0 0

Powered by AerisWeather